KSF3-C (55018 NORAD) Tracking and Keplerian Element Data

This shows tracking and keplerian element data for the satellite.

Feedback or suggestion? Click here.




ElementValue
Catalog55018
NameKSF3-C
Epoch Orbit1242
Epoch Day84.7334789
Epoch Year2023
RAAN145.4982
Inclination97.4864
Eccentricity0.0009424
Argument of Perigee306.2438
Mean Anonmoly53.7922
Mean Motion15.14604792
Decay Rate0.00018578
L11 55018U 23001K 23084.73347890 .00018578 00000+0 10069-2 0 9999
L22 55018 97.4864 145.4982 0009424 306.2438 53.7922 15.14604792 12423



Live tracking and technical data element details for KSF3-C (NORAD 55018). KSF3-C can be tracked NOW for your location showing map with azimuth and elevation plus other details from your city location.







IsCatalogInMostPopularTable: catalog: 55018, numindb: 8
Update: records affected: 1



GetName: 55018 KSF3-C

Hit Count: updated at: Mon, 27 Mar 2023 06:41:55 GMT